Location: Bennemühlen
(52.5740°N, 9.7135°E)
Time: 07:25:38
(UTC+00:00)

Vanguard 2 Rocket - Pass Details

Date: 23 February 2026
Orbit: 553 x 3286 km, 32.9° (Epoch: 11 March)

Event Time Altitude Azimuth Distance (km) Brightness Sun altitude
Rises 14:48:22 0° 265° (W) 7,087 12.4 15.3°
Reaches altitude 10° 14:54:38 10° 255° (WSW) 5,781 12.4 14.6°
Maximum altitude 15:06:35 25° 210° (SSW) 3,816 11.5 13.1°
Drops below altitude 10° 15:15:10 10° 161° (SSE) 4,042 10.5 12.0°
Sets 15:18:36 0° 148° (SSE) 4,639 10.6 11.6°
